www.pogodaiklimat.ru

Погода и климат >> Архив погоды >> Малайзия >> Аэропорт Сеная


ПОГОДА в Аэропорту Сеная

  • Прогноз погоды в Аэропорту Сеная
  • Монитор погоды в Аэропорту Сеная

АРХИВ ПОГОДЫ в Аэропорту Сеная

Время (UTC), дата Ветер
(напр.,м/с)
 
Видим.   Явления Облачность Т
(С)
Тd
(С)
f
(%)
Тe
(С)
Тes
(С)
Комфортность P
(гПа)
Po
(гПа)
Тmin
(С)
Tmax
(С)
R
(мм)
R24
(мм)
S
(см)
06 11.09 Ю 3 9000 м мгла 9/4 540 м
[Cu med, cong Ac trans Ci sp]
+33.5 +24.1 58 +45 +51 опасность
перегрева
1011.1 1006.8
12 11.09 В 3 9000 м мгла 6/1 720 м
[Sc Ac lent Ci sp]
+28.9 +24.2 76 +40 +40 очень
душно
1011.1 1006.8 +34.3
18 11.09 СВ 1 6000 м дымка 9/1 360 м
[St Ac trans Ci sp]
+24.5 +23.7 95 +33 +33 очень
душно
1012.3 1007.9
00 12.09 штиль 0 5000 м дымка 9/1 300 м
[St Ac trans Ci sp]
+24.2 +23.7 97 +33 +34 очень
душно
1013.8 1009.4 +23.6
06 12.09 Ю 3 6000 м мгла 9/3 540 м
[Cu med, cong Ac lent Ci sp]
+33.2 +23.3 56 +44 +51 опасность
перегрева
1011.2 1006.9
12 12.09 СВ 2 6000 м в посл. час гроза 9/3 600 м
[Sc Ac lent Ci sp]
+27.2 +23.6 81 +37 +37 очень
душно
1011.1 1006.7 +34.3
18 12.09 штиль 0 4000 м мгла 6/1 720 м
[Sc Ac trans Ci fib]
+24.8 +23.6 93 +34 +34 очень
душно
1011.7 1007.3
00 13.09 СВ 1 2000 м дымка 9/3 180 м
[St Ac lent Ci sp]
+24.8 +24.1 96 +34 +35 очень
душно
1012.6 1008.2 +24.0
06 13.09 Ю 3 4000 м мгла 9/3 540 м
[Cu med, cong Ac lent Ci sp]
+32.7 +24.6 62 +45 +52 опасность
перегрева
1010.5 1006.2
12 13.09 З 1 5000 м мгла 9/1 660 м
[Sc Ac lent Ci sp]
+29.4 +25.2 78 +43 +43 опасность
перегрева
1010.2 1005.9 +33.4
18 13.09 В 1 5000 м мгла 8/1 720 м
[Sc Ac trans Ci sp]
+26.4 +25.0 92 +38 +38 очень
душно
1010.6 1006.3
00 14.09 СВ 1 5000 м мгла 9/1 700 м
[Sc Ac trans Ci sp]
+24.3 +22.3 89 +32 +32 очень
душно
1012.3 1007.9 +24.1
06 14.09 З 1 2500 м в посл. час ливневой дождь 9/3 480 м
[Cb cap Ac lent Ci sp]
+27.6 +25.3 87 +40 +50 очень
душно
1010.5 1006.2 9
12 14.09 ЮЗ 2 2800 м мгла ?/? +28.1 +25.0 83 +40 +40 очень
душно
1010.0 1005.7 +30.2
18 14.09 штиль 0 3000 м дымка 9/3 300 м
[St Ac trans Ci sp]
+25.3 +24.5 95 +35 +35 очень
душно
1009.9 1005.6
00 15.09 штиль 0 2000 м дымка 9/3 240 м
[St Ac trans Ci sp]
+24.7 +24.2 97 +34 +35 очень
душно
1011.0 1006.6 +24.1 9
06 15.09 Ю 3 9000 м мгла 9/4 500 м
[Cb cap Ac lent Ci sp]
+31.1 +24.6 68 +44 +50 опасность
перегрева
1009.0 1004.7
12 15.09 штиль 0 8000 м мгла 9/1 660 м
[Sc Ac trans Ci sp]
+28.2 +25.8 87 +42 +42 опасность
перегрева
1009.0 1004.7 +31.5
18 15.09 штиль 0 4000 м мгла 9/1 700 м
[Sc Ac lent Ci sp]
+25.0 +24.0 94 +34 +34 очень
душно
1009.6 1005.3
00 16.09 С 1 3000 м дымка 9/3 240 м
[Cu Sc Ac lent Ci sp]
+24.1 +23.4 96 +32 +33 очень
душно
1010.2 1005.8 +23.3
06 16.09 Ю 2 5000 м мгла 9/4 540 м
[Cu med, cong Ac trans Ci sp]
+32.8 +23.5 58 +44 +51 опасность
перегрева
1008.5 1004.2
12 16.09 ЮЗ 1 5000 м мгла 9/1 600 м
[Sc Ac trans Ci sp]
+28.6 +24.2 77 +40 +40 очень
душно
1007.9 1003.6 +32.9
18 16.09 штиль 0 3000 м мгла 9/1 660 м
[Sc Ac trans Ci sp]
+24.4 +23.2 93 +33 +33 очень
душно
1009.4 1005.0
00 17.09 штиль 0 3000 м дымка 9/1 300 м
[St Ac lent Ci sp]
+24.3 +23.6 96 +33 +34 очень
душно
1011.1 1006.7 +23.8
06 17.09 Ю 3 6000 м мгла 9/4 540 м
[Cu med, cong Ac trans Ci sp]
+33.1 +23.7 58 +44 +51 опасность
перегрева
1008.8 1004.5
12 17.09 Ю 2 4000 м мгла 9/1 600 м
[Sc Ac trans Ci sp]
+29.4 +23.6 71 +40 +40 очень
душно
1009.0 1004.7 +33.5
18 17.09 СВ 1 4000 м мгла 9/1 700 м
[Sc Ac trans Ci sp]
+26.0 +24.8 93 +37 +37 очень
душно
1010.5 1006.2
00 18.09 СВ 1 2000 м дымка 9/3 240 м
[St Ac trans Ci sp]
+25.2 +24.4 95 +35 +36 очень
душно
1011.2 1006.9 +24.3

 

Местоположение метеостанции Аэропорт Сеная (Малайзия): широта 1.63 долгота 103.67 высота над уровнем моря 37 м.

В архиве по умолчанию представлена погода в Аэропорту Сеная за последнюю неделю. Архивные данные за месяц целиком и за предыдущие месяцы, начиная с января 2011 года, Вы можете получить, выбрав интересующий диапазон дат из раскрывающегося списка и нажав кнопку "Ввод!".


*Определитесь, кто Вы:
робот инопланетянин человек

Внимание! Время в таблицах - всемирное. Для получения местного времени необходимо прибавить поправку, которая равна 7 ч.

Смотрите также архив погоды в соседних городах и на ближайших метеорологических станциях:

Погода в Сингапуре (Сингапур) (45 км)
Погода в Аэропорту Ханга Надима (Индонезия) (75 км)
Погода в Танджунгпинанге (Индонезия) (124 км)
Погода в Малакке (Малайзия) (173 км)
Погода в Куантане (Малайзия) (245 км)
Погода в Куала-Лумпур аэропорту (Малайзия) (250 км)
Погода в Аэропорту Дабо (Индонезия) (256 км)
Погода в Аэропорту Япура (Индонезия) (265 км)
Погода в Пеканбару (Индонезия) (279 км)
Погода в Куала-Лумпуре (Малайзия) (288 км)

Пояснения к столбцам:

Ветер - указаны скорость ветра в м/с - средняя за 10 мин, порывы в срок и между сроками (в фигурных скобках) и направление, откуда дует ветер: С - северный, СВ - северо-восточный, В - восточный, ЮВ - юго-восточный, Ю - южный, ЮЗ - юго-западный, З - западный, СЗ - северо-западный.
Видимость - горизонтальная дальность видимости в метрах или километрах. При видимости от 1 до 10 км при отсутствии осадков обычно наблюдается дымка, при ухудшении видимости до 1 км и менее - туман. В сухую погоду видимость может ухудшаться дымом, пылью или мглою.
Явления - указаны атмосферные явления, наблюдавшиеся в срок или в последний час перед сроком; фигурными скобками обозначены явления, наблюдавшиеся между сроками (за 1-3 часа до срока); квадратными скобками обозначены град или гололедные отложения с указанием их диаметра в мм.
Облачность - указаны через наклонную черту общая и нижняя облачность в баллах и высота нижней границы облаков в метрах; квадратными скобками обозначены формы облаков: Ci - перистые, Cs - перисто-слоистые, Cc - перисто-кучевые, Ac - высококучевые, As - высокослоистые, Sc - слоисто-кучевые, Ns - слоисто-дождевые, Cu - кучевые, Cb - кучево-дождевые. Подробнее классификацию облаков см. в Атласе облаков (PDF).
T - Температура воздуха - температура, измеренная на высоте 2 м над землей.
Td - Температура точки росы - температура, при понижении до которой содержащийся в воздухе водяной пар достигнет насыщения.
f - Относительная влажность воздуха - влажноcть воздуха, измеренная на высоте 2 м над землей.
Te - Эффективная температура - температура, которую ощущает одетый по сезону человек в тени. Характеристика душности погоды. При расчете учитывается влияние влажности воздуха и скорости ветра на теплоощущения человека.
Tes - Эффективная температура на солнце - температура, которую ощущает человек, с поправкой на солнечный нагрев. Характеристика знойности погоды. Зависит от высоты солнца над горизонтом, облачности и скорости ветра. Ночью, в пасмурную погоду, а также при ветре 12 м/с и более поправка равна нулю.
P - Атмосферное давление - приведенное к уровню моря атмосферное давление.
Po - Атмосферное давление - измеренное на уровне метеостанции атмосферное давление.
Tmin - Минимальная температура - минимум температуры воздуха на высоте 2 м над землей.
Tmax - Максимальная температура - максимум температуры воздуха на высоте 2 м над землей.
R - Количество осадков - Количество выпавших осадков за период времени, мм. При наведении курсора мыши на число - период времени, за который выпало указанное количество осадков.
R24 - Количество осадков - Количество выпавших осадков за 24 часа, мм.
S - Снежный покров - Высота снежного покрова, см. При наведении курсора мыши на число - состояние снежного покрова и степень покрытия местности в баллах.